Вернуться в каталог

STARLINK-4568

АктивенСвязьVLEO
NORAD 53622·PAYLOAD·🇺🇸 United States

Запущен Aug 28, 2022 с Cape Canaveral Space Force Station

Loading…

Ближайшие Пролёты (ближайшие 24 часа)

TLE

СвежийSource: CelesTrak SupGP

Эпоха: Sep 15, 2026, 02:04 UTC

1 53622C 22104AL  26258.08659722  .00007115  00000+0  21024-3 0  2582
2 53622  53.1590  92.7074 0001304  82.0262  71.5922 15.34382416    14

Отслеживайте STARLINK-4568 в реальном времени с AllMySat

Download on the App Store